Time,TemperatureF,DewpointF,PressureIn,WindDirection,WindDirectionDegrees,WindSpeedMPH,WindSpeedGustMPH,Humidity,HourlyPrecipIn,Conditions,Clouds,dailyrainin,SoftwareType,DateUTC
2013-02-12 00:01:00,35.8,34.0,29.72,SSE,161,1.0,1.0,93,0.00,,,0.00,Wunderground PWS Mod,2013-02-12 05:01:00,
2013-02-12 00:11:00,35.7,33.9,29.72,West,261,0.0,3.0,93,0.00,,,0.00,Wunderground PWS Mod,2013-02-12 05:11:00,
2013-02-12 00:21:00,35.6,33.8,29.71,North,355,0.0,3.0,93,0.00,,,0.00,Wunderground PWS Mod,2013-02-12 05:21:00,
2013-02-12 00:31:00,35.3,33.5,29.72,North,355,0.0,3.0,93,0.00,,,0.00,Wunderground PWS Mod,2013-02-12 05:31:00,
2013-02-12 00:41:00,35.3,33.5,29.72,North,355,0.0,3.0,93,0.00,,,0.01,Wunderground PWS Mod,2013-02-12 05:41:00,
2013-02-12 00:51:00,35.1,33.3,29.72,North,355,0.0,3.0,93,0.00,,,0.01,Wunderground PWS Mod,2013-02-12 05:51:00,
2013-02-12 01:01:00,34.9,33.1,29.72,North,355,0.0,3.0,93,0.00,,,0.01,Wunderground PWS Mod,2013-02-12 06:01:00,
2013-02-12 01:10:00,34.9,33.1,29.72,North,0,0.0,1.0,93,0.01,,,0.01,Wunderground PWS Mod,2013-02-12 06:10:00,
2013-02-12 01:11:00,34.7,32.9,29.72,North,355,0.0,1.0,93,0.00,,,0.01,Wunderground PWS Mod,2013-02-12 06:11:00,
2013-02-12 01:21:00,34.8,33.0,29.73,North,355,0.0,1.0,93,0.00,,,0.01,Wunderground PWS Mod,2013-02-12 06:21:00,
2013-02-12 01:31:00,34.8,33.0,29.73,North,355,0.0,1.0,93,0.00,,,0.01,Wunderground PWS Mod,2013-02-12 06:31:00,
2013-02-12 01:41:00,34.9,33.1,29.73,North,355,0.0,1.0,93,0.00,,,0.01,Wunderground PWS Mod,2013-02-12 06:41:00,
2013-02-12 01:51:00,34.8,33.0,29.73,NNE,24,0.0,1.0,93,0.00,,,0.01,Wunderground PWS Mod,2013-02-12 06:51:00,
2013-02-12 02:01:00,34.6,32.8,29.73,NNE,24,0.0,1.0,93,0.00,,,0.01,Wunderground PWS Mod,2013-02-12 07:01:00,
2013-02-12 02:11:00,34.7,32.9,29.73,NNE,24,0.0,3.0,93,0.00,,,0.01,Wunderground PWS Mod,2013-02-12 07:11:00,
2013-02-12 02:21:00,35.2,33.4,29.73,WNW,288,1.0,3.0,93,0.00,,,0.01,Wunderground PWS Mod,2013-02-12 07:21:00,
2013-02-12 02:31:00,36.2,32.7,29.73,WNW,295,1.0,1.0,87,0.00,,,0.01,Wunderground PWS Mod,2013-02-12 07:31:00,
2013-02-12 02:41:00,37.2,31.6,29.73,WNW,295,1.0,1.0,80,0.00,,,0.01,Wunderground PWS Mod,2013-02-12 07:41:00,
2013-02-12 02:51:00,38.0,32.1,29.73,WNW,295,0.0,3.0,79,0.00,,,0.01,Wunderground PWS Mod,2013-02-12 07:51:00,
2013-02-12 03:01:00,37.9,31.7,29.73,WNW,295,0.0,3.0,78,0.00,,,0.01,Wunderground PWS Mod,2013-02-12 08:01:00,
2013-02-12 03:10:00,37.9,31.7,29.73,WNW,293,0.0,3.0,78,0.00,,,0.01,Wunderground PWS Mod,2013-02-12 08:10:00,
2013-02-12 03:11:00,37.4,32.1,29.73,WNW,295,0.0,3.0,81,0.00,,,0.01,Wunderground PWS Mod,2013-02-12 08:11:00,
2013-02-12 03:21:00,37.4,31.5,29.73,WNW,295,0.0,3.0,79,0.00,,,0.01,Wunderground PWS Mod,2013-02-12 08:21:00,
2013-02-12 03:31:00,38.3,31.1,29.73,SSW,210,0.0,3.0,75,0.00,,,0.01,Wunderground PWS Mod,2013-02-12 08:31:00,
2013-02-12 03:41:00,39.9,31.3,29.72,West,259,2.0,4.0,71,0.00,,,0.01,Wunderground PWS Mod,2013-02-12 08:41:00,
2013-02-12 03:51:00,41.0,31.6,29.73,West,263,3.0,3.0,69,0.00,,,0.01,Wunderground PWS Mod,2013-02-12 08:51:00,
2013-02-12 04:01:00,40.9,30.8,29.73,WSW,253,2.0,2.0,67,0.00,,,0.01,Wunderground PWS Mod,2013-02-12 09:01:00,
2013-02-12 04:11:00,41.2,31.1,29.72,NW,320,2.0,2.0,67,0.00,,,0.02,Wunderground PWS Mod,2013-02-12 09:11:00,
2013-02-12 04:21:00,41.0,30.9,29.73,West,271,1.0,1.0,67,0.00,,,0.02,Wunderground PWS Mod,2013-02-12 09:21:00,
2013-02-12 04:31:00,40.6,30.5,29.73,WNW,294,1.0,7.0,67,0.00,,,0.02,Wunderground PWS Mod,2013-02-12 09:31:00,
2013-02-12 04:41:00,40.6,30.5,29.74,West,265,1.0,7.0,67,0.00,,,0.02,Wunderground PWS Mod,2013-02-12 09:41:00,
2013-02-12 04:51:00,40.7,30.2,29.75,WNW,289,1.0,7.0,66,0.00,,,0.02,Wunderground PWS Mod,2013-02-12 09:51:00,
2013-02-12 05:01:00,40.6,30.1,29.74,NNW,333,1.0,7.0,66,0.00,,,0.02,Wunderground PWS Mod,2013-02-12 10:01:00,
2013-02-12 05:10:00,40.6,29.7,29.75,West,270,1.0,5.0,65,0.01,,,0.02,Wunderground PWS Mod,2013-02-12 10:10:00,
2013-02-12 05:11:00,40.6,29.7,29.74,West,279,1.0,1.0,65,0.00,,,0.02,Wunderground PWS Mod,2013-02-12 10:11:00,
2013-02-12 05:21:00,40.8,29.6,29.74,WNW,300,2.0,5.0,64,0.00,,,0.02,Wunderground PWS Mod,2013-02-12 10:21:00,
2013-02-12 05:31:00,40.7,29.8,29.75,West,269,1.0,5.0,65,0.00,,,0.02,Wunderground PWS Mod,2013-02-12 10:31:00,
2013-02-12 05:41:00,40.8,29.6,29.75,WNW,284,1.0,5.0,64,0.00,,,0.02,Wunderground PWS Mod,2013-02-12 10:41:00,
2013-02-12 05:51:00,40.8,29.6,29.75,NW,304,2.0,2.0,64,0.00,,,0.02,Wunderground PWS Mod,2013-02-12 10:51:00,
2013-02-12 06:01:00,40.7,29.5,29.75,NNW,327,1.0,5.0,64,0.00,,,0.02,Wunderground PWS Mod,2013-02-12 11:01:00,
2013-02-12 06:11:00,40.9,29.3,29.75,WNW,289,2.0,2.0,63,0.00,,,0.02,Wunderground PWS Mod,2013-02-12 11:11:00,
2013-02-12 06:21:00,40.8,29.2,29.76,WNW,298,2.0,2.0,63,0.00,,,0.02,Wunderground PWS Mod,2013-02-12 11:21:00,
2013-02-12 06:31:00,40.6,29.0,29.76,West,276,1.0,1.0,63,0.00,,,0.02,Wunderground PWS Mod,2013-02-12 11:31:00,
2013-02-12 06:41:00,40.5,29.3,29.76,WNW,297,1.0,5.0,64,0.00,,,0.02,Wunderground PWS Mod,2013-02-12 11:41:00,
2013-02-12 06:51:00,40.2,29.0,29.76,West,273,1.0,1.0,64,0.00,,,0.02,Wunderground PWS Mod,2013-02-12 11:51:00,
2013-02-12 07:01:00,40.2,29.0,29.76,West,261,1.0,5.0,64,0.00,,,0.02,Wunderground PWS Mod,2013-02-12 12:01:00,
2013-02-12 07:10:00,40.2,29.0,29.76,WNW,293,1.0,4.0,64,0.00,,,0.03,Wunderground PWS Mod,2013-02-12 12:10:00,
2013-02-12 07:11:00,40.0,29.6,29.76,West,268,0.0,4.0,66,0.00,,,0.02,Wunderground PWS Mod,2013-02-12 12:11:00,
2013-02-12 07:21:00,40.0,28.8,29.77,WNW,286,1.0,4.0,64,0.00,,,0.03,Wunderground PWS Mod,2013-02-12 12:21:00,
2013-02-12 07:31:00,40.2,28.6,29.78,West,274,2.0,2.0,63,0.00,,,0.03,Wunderground PWS Mod,2013-02-12 12:31:00,
2013-02-12 07:41:00,40.1,28.5,29.78,West,265,1.0,1.0,63,0.00,,,0.03,Wunderground PWS Mod,2013-02-12 12:41:00,
2013-02-12 07:51:00,40.0,28.8,29.78,SW,217,0.0,4.0,64,0.00,,,0.03,Wunderground PWS Mod,2013-02-12 12:51:00,
2013-02-12 08:01:00,40.0,28.8,29.79,SW,223,0.0,4.0,64,0.00,,,0.03,Wunderground PWS Mod,2013-02-12 13:01:00,
2013-02-12 08:11:00,40.0,28.4,29.80,West,271,1.0,4.0,63,0.00,,,0.03,Wunderground PWS Mod,2013-02-12 13:11:00,
2013-02-12 08:21:00,40.1,29.3,29.80,WNW,290,0.0,4.0,65,0.00,,,0.03,Wunderground PWS Mod,2013-02-12 13:21:00,
2013-02-12 08:31:00,39.6,29.9,29.80,WNW,284,0.0,4.0,68,0.00,,,0.03,Wunderground PWS Mod,2013-02-12 13:31:00,
2013-02-12 08:41:00,39.1,29.8,29.80,SSE,165,0.0,4.0,69,0.00,,,0.03,Wunderground PWS Mod,2013-02-12 13:41:00,
2013-02-12 08:51:00,39.2,29.2,29.81,SE,142,1.0,1.0,67,0.00,,,0.03,Wunderground PWS Mod,2013-02-12 13:51:00,
2013-02-12 09:01:00,39.6,28.8,29.81,SE,142,0.0,4.0,65,0.00,,,0.03,Wunderground PWS Mod,2013-02-12 14:01:00,
2013-02-12 09:10:00,39.6,29.2,29.81,SSE,158,0.0,3.0,66,0.00,,,0.04,Wunderground PWS Mod,2013-02-12 14:10:00,
2013-02-12 09:11:00,40.4,28.4,29.81,SSE,154,0.0,3.0,62,0.00,,,0.03,Wunderground PWS Mod,2013-02-12 14:11:00,
2013-02-12 09:21:00,41.2,28.8,29.82,WSW,242,1.0,3.0,61,0.00,,,0.03,Wunderground PWS Mod,2013-02-12 14:21:00,
2013-02-12 09:31:00,41.7,28.8,29.82,SW,231,1.0,3.0,60,0.00,,,0.03,Wunderground PWS Mod,2013-02-12 14:31:00,
2013-02-12 09:41:00,42.3,28.6,29.82,SW,231,0.0,3.0,58,0.00,,,0.03,Wunderground PWS Mod,2013-02-12 14:41:00,
2013-02-12 09:51:00,43.2,29.0,29.82,WNW,301,1.0,3.0,57,0.00,,,0.03,Wunderground PWS Mod,2013-02-12 14:51:00,
2013-02-12 10:01:00,43.6,28.9,29.83,NW,309,2.0,2.0,56,0.00,,,0.04,Wunderground PWS Mod,2013-02-12 15:01:00,
2013-02-12 10:11:00,44.3,28.7,29.83,WSW,238,1.0,1.0,54,0.00,,,0.04,Wunderground PWS Mod,2013-02-12 15:11:00,
2013-02-12 10:21:00,44.2,28.1,29.83,North,360,2.0,2.0,53,0.00,,,0.04,Wunderground PWS Mod,2013-02-12 15:21:00,
2013-02-12 10:31:00,44.0,28.0,29.84,North,355,2.0,2.0,53,0.00,,,0.04,Wunderground PWS Mod,2013-02-12 15:31:00,
2013-02-12 10:41:00,43.9,27.9,29.84,West,261,1.0,5.0,53,0.00,,,0.04,Wunderground PWS Mod,2013-02-12 15:41:00,
2013-02-12 10:51:00,44.0,28.4,29.84,West,269,0.0,5.0,54,0.00,,,0.04,Wunderground PWS Mod,2013-02-12 15:51:00,
2013-02-12 11:01:00,43.7,27.7,29.85,North,5,1.0,5.0,53,0.00,,,0.04,Wunderground PWS Mod,2013-02-12 16:01:00,
2013-02-12 11:10:00,43.8,27.8,29.85,West,270,1.0,3.0,53,0.00,,,0.04,Wunderground PWS Mod,2013-02-12 16:10:00,
2013-02-12 11:11:00,43.6,28.0,29.85,North,351,2.0,3.0,54,0.00,,,0.04,Wunderground PWS Mod,2013-02-12 16:11:00,
2013-02-12 11:21:00,43.6,28.0,29.85,North,351,1.0,3.0,54,0.00,,,0.04,Wunderground PWS Mod,2013-02-12 16:21:00,
2013-02-12 11:31:00,43.8,28.2,29.85,North,351,1.0,3.0,54,0.00,,,0.04,Wunderground PWS Mod,2013-02-12 16:31:00,
2013-02-12 11:41:00,43.8,28.2,29.85,WSW,249,1.0,3.0,54,0.00,,,0.04,Wunderground PWS Mod,2013-02-12 16:41:00,
2013-02-12 11:51:00,44.0,28.9,29.85,West,281,2.0,3.0,55,0.00,,,0.04,Wunderground PWS Mod,2013-02-12 16:51:00,
2013-02-12 12:01:00,43.8,28.2,29.85,West,281,2.0,3.0,54,0.00,,,0.04,Wunderground PWS Mod,2013-02-12 17:01:00,
2013-02-12 12:11:00,43.4,28.3,29.85,NNW,342,2.0,6.0,55,0.00,,,0.04,Wunderground PWS Mod,2013-02-12 17:11:00,
2013-02-12 12:21:00,43.2,28.5,29.85,SW,219,2.0,6.0,56,0.00,,,0.04,Wunderground PWS Mod,2013-02-12 17:21:00,
2013-02-12 12:31:00,42.8,28.2,29.85,WNW,291,2.0,6.0,56,0.00,,,0.04,Wunderground PWS Mod,2013-02-12 17:31:00,
2013-02-12 12:41:00,42.9,28.7,29.85,WNW,287,2.0,6.0,57,0.00,,,0.04,Wunderground PWS Mod,2013-02-12 17:41:00,
2013-02-12 12:51:00,43.4,29.2,29.85,WNW,294,2.0,2.0,57,0.00,,,0.04,Wunderground PWS Mod,2013-02-12 17:51:00,
2013-02-12 13:01:00,43.6,28.9,29.86,WNW,284,2.0,2.0,56,0.00,,,0.04,Wunderground PWS Mod,2013-02-12 18:01:00,
2013-02-12 13:10:00,43.6,28.9,29.85,WNW,293,2.0,5.0,56,0.00,,,0.04,Wunderground PWS Mod,2013-02-12 18:10:00,
2013-02-12 13:11:00,43.3,29.1,29.86,WSW,258,3.0,3.0,57,0.00,,,0.04,Wunderground PWS Mod,2013-02-12 18:11:00,
2013-02-12 13:21:00,43.1,28.9,29.86,NW,311,2.0,5.0,57,0.00,,,0.04,Wunderground PWS Mod,2013-02-12 18:21:00,
2013-02-12 13:31:00,42.7,28.9,29.87,WNW,282,2.0,2.0,58,0.00,,,0.04,Wunderground PWS Mod,2013-02-12 18:31:00,
2013-02-12 13:41:00,41.9,28.6,29.87,NW,316,3.0,5.0,59,0.00,,,0.04,Wunderground PWS Mod,2013-02-12 18:41:00,
2013-02-12 13:51:00,41.5,28.6,29.87,NW,304,2.0,5.0,60,0.00,,,0.04,Wunderground PWS Mod,2013-02-12 18:51:00,
2013-02-12 14:01:00,41.3,28.4,29.88,NW,306,3.0,5.0,60,0.00,,,0.04,Wunderground PWS Mod,2013-02-12 19:01:00,
2013-02-12 14:11:00,41.1,28.7,29.88,NW,305,2.0,2.0,61,0.00,,,0.04,Wunderground PWS Mod,2013-02-12 19:11:00,
2013-02-12 14:21:00,40.8,28.8,29.89,West,267,3.0,3.0,62,0.00,,,0.04,Wunderground PWS Mod,2013-02-12 19:21:00,
2013-02-12 14:31:00,40.6,28.6,29.88,NNW,327,3.0,3.0,62,0.00,,,0.04,Wunderground PWS Mod,2013-02-12 19:31:00,
2013-02-12 14:41:00,40.5,28.5,29.88,WNW,290,3.0,3.0,62,0.00,,,0.04,Wunderground PWS Mod,2013-02-12 19:41:00,
2013-02-12 14:51:00,40.4,28.8,29.88,West,278,3.0,9.0,63,0.00,,,0.04,Wunderground PWS Mod,2013-02-12 19:51:00,
2013-02-12 15:01:00,40.4,28.8,29.88,WNW,300,2.0,9.0,63,0.00,,,0.04,Wunderground PWS Mod,2013-02-12 20:01:00,
2013-02-12 15:10:00,40.4,28.8,29.88,NW,315,3.0,8.0,63,0.00,,,0.04,Wunderground PWS Mod,2013-02-12 20:10:00,
2013-02-12 15:11:00,40.5,28.5,29.88,NNE,17,2.0,8.0,62,0.00,,,0.04,Wunderground PWS Mod,2013-02-12 20:11:00,
2013-02-12 15:21:00,40.7,28.3,29.87,North,5,2.0,2.0,61,0.00,,,0.04,Wunderground PWS Mod,2013-02-12 20:21:00,
2013-02-12 15:31:00,40.6,28.6,29.87,North,5,0.0,8.0,62,0.00,,,0.04,Wunderground PWS Mod,2013-02-12 20:31:00,
2013-02-12 15:41:00,40.5,28.5,29.88,WNW,284,1.0,8.0,62,0.00,,,0.04,Wunderground PWS Mod,2013-02-12 20:41:00,
2013-02-12 15:51:00,40.6,28.2,29.88,NNW,348,1.0,1.0,61,0.00,,,0.04,Wunderground PWS Mod,2013-02-12 20:51:00,
2013-02-12 16:01:00,41.1,28.3,29.87,ENE,59,1.0,8.0,60,0.00,,,0.04,Wunderground PWS Mod,2013-02-12 21:01:00,
2013-02-12 16:11:00,41.9,28.6,29.87,ENE,59,0.0,4.0,59,0.00,,,0.04,Wunderground PWS Mod,2013-02-12 21:11:00,
2013-02-12 16:21:00,41.8,28.9,29.86,ENE,57,0.0,4.0,60,0.00,,,0.04,Wunderground PWS Mod,2013-02-12 21:21:00,
2013-02-12 16:31:00,41.1,28.3,29.86,NNW,340,0.0,4.0,60,0.00,,,0.04,Wunderground PWS Mod,2013-02-12 21:31:00,
2013-02-12 16:41:00,40.6,28.2,29.86,NNW,340,0.0,4.0,61,0.00,,,0.04,Wunderground PWS Mod,2013-02-12 21:41:00,
2013-02-12 16:51:00,40.0,28.0,29.85,NNW,340,0.0,4.0,62,0.00,,,0.04,Wunderground PWS Mod,2013-02-12 21:51:00,
2013-02-12 17:00:00,39.2,27.7,29.84,ESE,113,0.0,2.0,63,0.00,,,0.04,Wunderground PWS Mod,2013-02-12 22:00:00,
2013-02-12 17:01:00,39.2,27.7,29.84,ESE,109,0.0,4.0,63,0.00,,,0.04,Wunderground PWS Mod,2013-02-12 22:01:00,
2013-02-12 17:11:00,38.4,28.0,29.85,ESE,109,0.0,2.0,66,0.00,,,0.04,Wunderground PWS Mod,2013-02-12 22:11:00,
2013-02-12 17:21:00,37.5,27.9,29.86,ESE,109,0.0,2.0,68,0.00,,,0.04,Wunderground PWS Mod,2013-02-12 22:21:00,
2013-02-12 17:31:00,36.8,27.9,29.87,ESE,109,0.0,2.0,70,0.00,,,0.04,Wunderground PWS Mod,2013-02-12 22:31:00,
2013-02-12 17:41:00,36.0,27.8,29.88,ESE,109,0.0,2.0,72,0.00,,,0.04,Wunderground PWS Mod,2013-02-12 22:41:00,
2013-02-12 17:51:00,35.5,27.7,29.89,ESE,109,0.0,2.0,73,0.00,,,0.04,Wunderground PWS Mod,2013-02-12 22:51:00,
2013-02-12 18:01:00,35.6,27.8,29.90,ESE,109,0.0,2.0,73,0.00,,,0.04,Wunderground PWS Mod,2013-02-12 23:01:00,
2013-02-12 18:10:00,35.6,27.8,29.90,ESE,113,0.0,1.0,73,0.00,,,0.04,Wunderground PWS Mod,2013-02-12 23:10:00,
2013-02-12 18:11:00,35.4,28.3,29.91,ESE,109,0.0,1.0,75,0.00,,,0.04,Wunderground PWS Mod,2013-02-12 23:11:00,
2013-02-12 18:21:00,35.8,27.7,29.92,North,355,0.0,1.0,72,0.00,,,0.04,Wunderground PWS Mod,2013-02-12 23:21:00,
2013-02-12 18:31:00,37.0,27.4,29.93,NW,324,2.0,2.0,68,0.00,,,0.04,Wunderground PWS Mod,2013-02-12 23:31:00,
2013-02-12 18:41:00,37.6,27.3,29.94,West,275,1.0,2.0,66,0.00,,,0.04,Wunderground PWS Mod,2013-02-12 23:41:00,
2013-02-12 18:51:00,38.0,26.9,29.95,West,271,1.0,1.0,64,0.00,,,0.04,Wunderground PWS Mod,2013-02-12 23:51:00,
2013-02-12 19:01:00,38.2,26.7,29.97,West,265,2.0,2.0,63,0.00,,,0.04,Wunderground PWS Mod,2013-02-13 00:01:00,
2013-02-12 19:11:00,38.3,26.0,29.97,WSW,253,1.0,6.0,61,0.00,,,0.04,Wunderground PWS Mod,2013-02-13 00:11:00,
2013-02-12 19:21:00,38.3,26.0,29.96,West,266,2.0,6.0,61,0.00,,,0.04,Wunderground PWS Mod,2013-02-13 00:21:00,
2013-02-12 19:31:00,38.4,25.7,29.96,NW,322,3.0,3.0,60,0.00,,,0.04,Wunderground PWS Mod,2013-02-13 00:31:00,
2013-02-12 19:41:00,38.3,25.6,29.97,WNW,288,2.0,2.0,60,0.00,,,0.04,Wunderground PWS Mod,2013-02-13 00:41:00,
2013-02-12 19:51:00,38.2,25.9,29.97,NNW,348,2.0,6.0,61,0.00,,,0.04,Wunderground PWS Mod,2013-02-13 00:51:00,
2013-02-12 20:01:00,38.1,25.8,29.97,NNW,344,2.0,6.0,61,0.00,,,0.04,Wunderground PWS Mod,2013-02-13 01:01:00,
2013-02-12 20:10:00,38.1,25.8,29.97,NW,315,2.0,6.0,61,0.00,,,0.04,Wunderground PWS Mod,2013-02-13 01:10:00,
2013-02-12 20:11:00,38.0,25.3,29.95,North,5,2.0,2.0,60,0.00,,,0.04,Wunderground PWS Mod,2013-02-13 01:11:00,
2013-02-12 20:21:00,38.0,26.1,29.94,North,5,1.0,1.0,62,0.00,,,0.04,Wunderground PWS Mod,2013-02-13 01:21:00,
2013-02-12 20:31:00,37.8,26.3,29.94,North,5,0.0,6.0,63,0.00,,,0.04,Wunderground PWS Mod,2013-02-13 01:31:00,
2013-02-12 20:41:00,37.4,26.3,29.94,North,5,0.0,6.0,64,0.00,,,0.04,Wunderground PWS Mod,2013-02-13 01:41:00,
2013-02-12 20:51:00,36.9,27.0,29.94,North,5,0.0,6.0,67,0.00,,,0.04,Wunderground PWS Mod,2013-02-13 01:51:00,
2013-02-12 21:01:00,36.4,26.8,29.95,North,5,0.0,6.0,68,0.00,,,0.04,Wunderground PWS Mod,2013-02-13 02:01:00,
2013-02-12 21:11:00,36.1,26.9,29.94,North,5,0.0,0.0,69,0.00,,,0.04,Wunderground PWS Mod,2013-02-13 02:11:00,
2013-02-12 21:21:00,35.7,27.6,29.94,North,5,0.0,0.0,72,0.00,,,0.04,Wunderground PWS Mod,2013-02-13 02:21:00,
2013-02-12 21:31:00,35.4,27.6,29.93,North,5,0.0,0.0,73,0.00,,,0.04,Wunderground PWS Mod,2013-02-13 02:31:00,
2013-02-12 21:41:00,35.1,27.3,29.93,North,5,0.0,0.0,73,0.00,,,0.04,Wunderground PWS Mod,2013-02-13 02:41:00,
2013-02-12 21:51:00,34.8,27.7,29.92,North,5,0.0,0.0,75,0.00,,,0.04,Wunderground PWS Mod,2013-02-13 02:51:00,
2013-02-12 22:01:00,34.6,28.1,29.92,North,5,0.0,0.0,77,0.00,,,0.04,Wunderground PWS Mod,2013-02-13 03:01:00,
2013-02-12 22:10:00,34.6,28.1,29.92,N/A,-737280,0.0,0.0,77,0.00,,,0.04,Wunderground PWS Mod,2013-02-13 03:10:00,
2013-02-12 22:11:00,34.3,27.2,29.93,North,5,0.0,0.0,75,0.00,,,0.04,Wunderground PWS Mod,2013-02-13 03:11:00,
2013-02-12 22:21:00,34.1,26.7,29.93,ENE,74,0.0,1.0,74,0.00,,,0.04,Wunderground PWS Mod,2013-02-13 03:21:00,
2013-02-12 22:31:00,34.4,27.3,29.92,ENE,73,1.0,1.0,75,0.00,,,0.04,Wunderground PWS Mod,2013-02-13 03:31:00,
2013-02-12 22:41:00,35.0,26.5,29.92,NNW,342,0.0,0.0,71,0.00,,,0.04,Wunderground PWS Mod,2013-02-13 03:41:00,
2013-02-12 22:51:00,35.2,25.7,29.92,NNW,344,0.0,0.0,68,0.00,,,0.04,Wunderground PWS Mod,2013-02-13 03:51:00,
2013-02-12 23:01:00,35.2,26.0,29.92,NNW,344,0.0,0.0,69,0.00,,,0.04,Wunderground PWS Mod,2013-02-13 04:01:00,
2013-02-12 23:11:00,35.2,25.7,29.93,NNW,344,0.0,3.0,68,0.00,,,0.04,Wunderground PWS Mod,2013-02-13 04:11:00,
2013-02-12 23:21:00,36.0,24.6,29.93,NNW,344,1.0,3.0,63,0.00,,,0.04,Wunderground PWS Mod,2013-02-13 04:21:00,
2013-02-12 23:31:00,36.6,24.4,29.92,West,261,2.0,2.0,61,0.00,,,0.04,Wunderground PWS Mod,2013-02-13 04:31:00,
2013-02-12 23:41:00,36.4,24.2,29.93,North,11,1.0,1.0,61,0.00,,,0.04,Wunderground PWS Mod,2013-02-13 04:41:00,
2013-02-12 23:51:00,36.4,24.2,29.92,North,11,1.0,3.0,61,0.00,,,0.04,Wunderground PWS Mod,2013-02-13 04:51:00,